DECAYED

DMSP 5D-2 F13 DEB, 42324 (Decayed)

Orbit data source: Space-Track

DMSP 5D-2 F13 DEB, 42324 was space debris in SSO originally from a launch on Fri, 24 Mar 1995 UTC launched from the Air Force Western Test Range (AFWTR). Debris objects in space refer to the collection of defunct objects orbiting the Earth. Examples of debris include non-operational satellites, rocket bodies, and fragments generated from explosions, collisions, or faulty payload assembly.

Not visible in the next 10 days
Identifier
42324, 1995-015JS
Orbit
Decayed
Country
Flag of USUS
Related business
Manufacturer
Unknown
Mission
Decayed spacecraft
Bus & Motor
Unknown
Mass
Unknown
Launch date (UTC)
1995-03-24 (31 years ago)
Launch vehicle
Unknown
Launch site
Air Force Western Test Range (AFWTR)
Object type
Payload
Rocket body
Debris
Shape & HBR
Unknown shape, 0.1 m
Radar Cross Section
Small (<0.1 m²)

Expand to show TLE details & history
Last TLE update: 1 year ago

TLE from 1 year ago
0 DMSP 5D-2 F13 DEB
1 42324U 95015JS  25027.14448995  .00405959  00000-0  21182-1 0  9992
2 42324  98.7380 106.4363 0007408 285.6771  74.3639 15.13938366485521
Epoch: 2025-01-27T03:28Z
TLE epoch observation values (Epoch: 2025-01-27T03:28:03.931Z)
Latitude
-0.00006°
Longitude
-72.24889°
Altitude
525.869 km
Speed
7.601 km/s
True Right ascension
07h 05m 44s
True Declination
0° 00' 00"
Sunlit
Object was in full shadow at epoch
Visualization orbit readout
Latitude
Unknown
Longitude
Unknown
Altitude
Unknown
Speed
Unknown
Apparent Right ascension
Unknown
Apparent Declination
Unknown
Sunlit
N/A
Visualization observer readout
Local Sidereal Time
00:51:19
Azimuth
Unknown
Elevation
Unknown
Doppler factor
Unknown
Orbital elements
Apogee altitude
526.35 km
Perigee altitude
516.128 km
Semi-major axis
6,899.376 km
Eccentricity
0.00074
Inclination
98.738°
RAAN
106.4363°
Arg. of periapsis
285.6771°
True anomaly
74.44567°
Mean anomaly
74.3639°
Eccentric anomaly
74.40478°
Mean motion
3.78729 °/min
Orbital period
95.05 mins
BSTAR
0.021182
Loading maneuver chart data...
Computing Atmospheric mass density...

Documentation

Showing up to 5 results
|